Relay 1

operational
NORAD ID: 503 Int'l Des: 1962 B UP Owner: GSFC Country: US
MEOELLIPTICALHEO_ELLIPTICAL

关于 Relay 1

正在加载描述...

实时位置

正在加载3D地球...

即将过境

高度历史

Altitude vs Time

uPlot chart will show altitude changes over time

两行轨道根数

1 503U 62068A 26063.37590857 -.00000033 00000-0 00000+0 0 9997
2 503 47.4928 199.3281 2841472 91.4230 324.3401 7.78170603797328
Epoch: Mar 4, 2026 • Age: 22 hours

当前状态

高度 2029.8 km
速度 7.60 km/s
星下点 25.90°N, 139.05°W
类型 other

大型星座

Loading constellations...